(512516) = 2016 RF27

Discovered at Mount Lemmon on 2011-03-14 by Mt. Lemmon Survey.

Orbit

Orbit type: Main Belt

Note: WebGL enabled browser required.

epoch2023-09-13.0
epoch JD2460200.5
perihelion date2020-04-06.61458
perihelion JD2458946.11458
argument of perihelion (°)115.24452
ascending node (°)201.51392
inclination (°)1.97627
eccentricity0.2019383
perihelion distance (AU)1.9604665
Tisserand w.r.t. Jupiter3.5
ΔV w.r.t. Earth (km/sec)8.8
semimajor axis (AU)2.4565349
mean anomaly (°)321.10750
mean daily motion (°/day)0.25598790
aphelion distance (AU)2.953
period (years)3.85
P-vector [x]0.72827465
P-vector [y]-0.64049286
P-vector [z]-0.24369024
Q-vector [x]0.68516866
Q-vector [y]0.67399371
Q-vector [z]0.27618179
absolute magnitude17.66
phase slope0.15
uncertainty0
referenceMPEC 2023-Q57
observations used256
oppositions13
arc length (days)8417
first opposition used2000
last opposition used2023
residual rms (arc-secs)0.78
perturbers coarse indicatorM-v
perturbers precise indicator003Ek
first observation date used2000-05-28.0
last observation date used2023-06-14.0
computer nameMPCLINUX
JD of orbit computation2458139.296758
perihelion JD uncertainty (days)3.3649E-05
argument of perihelion uncertainty (°)1.1514E-04
ascending node uncertainty (°)1.1480E-04
inclination uncertainty (°)4.1119E-06
eccentricity uncertainty 4.6770E-08
perihelion distance uncertainty (AU)1.1223E-07
Minimum Orbit Intersection Distances (in AU)
for orbit epoch: 2460200.5, reference: E2023-Q57
Mercury1.53849
Venus1.2362
Earth0.94745
Mars0.57832
Jupiter2.33845
Saturn6.19462
Uranus15.5388
Neptune27.2922

Observations

260 total observations over interval: 2000 05 28.23277 – 2023 06 14.327850
These data are available for download (format description).

Date (UT) J2000 RA J2000 Dec Magn Location Ref
2000 05 28.23277 15 21 23.40 -16 16 59.2 20.7 V 691 – Steward Observatory, Kitt Peak-Spacewatch MPS 732516
2000 05 28.25980 15 21 21.83 -16 16 52.7 21.3 V 691 – Steward Observatory, Kitt Peak-Spacewatch MPS 732516
2000 05 28.28663 15 21 20.30 -16 16 46.0 21.0 V 691 – Steward Observatory, Kitt Peak-Spacewatch MPS 732516
2001 12 19.13639 03 43 31.14 +17 28 56.8 21.6 V 691 – Steward Observatory, Kitt Peak-Spacewatch MPS 732516
2001 12 19.15846 03 43 30.25 +17 28 54.3 22.1 V 691 – Steward Observatory, Kitt Peak-Spacewatch MPS 732516
2001 12 19.21026 03 43 28.12 +17 28 47.5 22.0 V 691 – Steward Observatory, Kitt Peak-Spacewatch MPS 732516
2005 11 30.20021 05 24 37.18 +20 37 53.0 21.0 V 691 – Steward Observatory, Kitt Peak-Spacewatch MPS 732516
2005 11 30.21758 05 24 36.00 +20 37 51.8 21.2 V 691 – Steward Observatory, Kitt Peak-Spacewatch MPS 732516
2005 11 30.23500 05 24 34.89 +20 37 49.9 21.4 V 691 – Steward Observatory, Kitt Peak-Spacewatch MPS 732516
2011 03 14.37802 11 34 34.24 +01 10 12.6 21.5 V G96 – Mt. Lemmon Survey MPS 732516
2011 03 14.38607 11 34 33.81 +01 10 15.6 21.4 V G96 – Mt. Lemmon Survey MPS 732516
2011 03 14.39409 11 34 33.34 +01 10 18.8 21.0 V G96 – Mt. Lemmon Survey MPS 732516
2011 03 14.40222 11 34 32.91 +01 10 21.9 21.4 V G96 – Mt. Lemmon Survey MPS 732516
2011 03 29.22424 11 21 31.78 +02 43 52.4 21.7 V G96 – Mt. Lemmon Survey MPS 732516
2011 03 29.22944 11 21 31.53 +02 43 54.3 21.6 V G96 – Mt. Lemmon Survey MPS 732516
2011 03 29.23465 11 21 31.24 +02 43 56.7 21.8 V G96 – Mt. Lemmon Survey MPS 732516
2011 03 29.23980 11 21 31.03 +02 43 58.0 20.8 V G96 – Mt. Lemmon Survey MPS 732516
2012 08 09.26172 22 03 31.71 -08 15 28.1 19.9 G G45 – Space Surveillance Telescope, Atom Site MPS 1611162
2012 08 09.38342 22 03 26.04 -08 16 01.1 19.2 G G45 – Space Surveillance Telescope, Atom Site MPS 1611162
2012 08 09.39630 22 03 25.44 -08 16 04.0 19.8 G G45 – Space Surveillance Telescope, Atom Site MPS 1611162
2012 08 09.42445 22 03 24.11 -08 16 11.2 19.8 G G45 – Space Surveillance Telescope, Atom Site MPS 1611162
2012 08 13.41420 22 00 25.472 -08 34 54.49 19.4 w F51 – Pan-STARRS 1, Haleakala MPS 732516
2012 08 13.42869 22 00 24.753 -08 34 58.82 19.4 w F51 – Pan-STARRS 1, Haleakala MPS 732516
2012 08 13.44323 22 00 24.028 -08 35 03.08 19.4 w F51 – Pan-STARRS 1, Haleakala MPS 732516
2012 08 17.96094 21 56 51.06 -08 58 11.9 18.2 R 106 – Crni Vrh MPS 732516
2012 08 17.97337 21 56 50.41 -08 58 16.1 18.9 R 106 – Crni Vrh MPS 732516
2012 08 17.98581 21 56 49.80 -08 58 20.1 18.6 R 106 – Crni Vrh MPS 732516
2012 08 17.99824 21 56 49.19 -08 58 23.6 18.6 R 106 – Crni Vrh MPS 732516
2012 09 15.20940 21 38 57.12 -11 17 38.0 19.0 V G96 – Mt. Lemmon Survey MPS 732516
2012 09 15.21458 21 38 56.90 -11 17 39.1 19.6 V G96 – Mt. Lemmon Survey MPS 732516
2012 09 15.21983 21 38 56.76 -11 17 40.8 20.0 V G96 – Mt. Lemmon Survey MPS 732516
2012 09 15.22505 21 38 56.65 -11 17 41.8 19.9 V G96 – Mt. Lemmon Survey MPS 732516
2012 10 09.12640 21 40 35.90 -11 58 00.5 21.0 V G96 – Mt. Lemmon Survey MPS 732516
2012 10 09.13434 21 40 36.08 -11 58 00.5 20.4 V G96 – Mt. Lemmon Survey MPS 732516
2012 10 09.14235 21 40 36.26 -11 58 00.6 20.8 V G96 – Mt. Lemmon Survey MPS 732516
2012 10 09.15029 21 40 36.48 -11 58 00.0 21.0 V G96 – Mt. Lemmon Survey MPS 732516
2012 10 22.12234 21 48 50.83 -11 39 20.3 20.8 V G96 – Mt. Lemmon Survey MPS 732516
2012 10 22.12794 21 48 51.04 -11 39 19.6 20.8 V G96 – Mt. Lemmon Survey MPS 732516
2012 10 22.13306 21 48 51.30 -11 39 18.9 20.6 V G96 – Mt. Lemmon Survey MPS 732516
2012 10 22.13817 21 48 51.55 -11 39 18.8 21.0 V G96 – Mt. Lemmon Survey MPS 732516
2013 12 11.56293 07 32 55.891 +18 52 07.21 22.0 w F51 – Pan-STARRS 1, Haleakala MPS 732516
2013 12 11.56372 07 32 55.847 +18 52 07.23 21.9 w F51 – Pan-STARRS 1, Haleakala MPS 732516
2013 12 11.57805 07 32 55.197 +18 52 07.94 21.8 w F51 – Pan-STARRS 1, Haleakala MPS 732516
2013 12 11.57884 07 32 55.183 +18 52 07.82 21.8 w F51 – Pan-STARRS 1, Haleakala MPS 732516
2013 12 11.60831 07 32 53.824 +18 52 09.24 21.6 w F51 – Pan-STARRS 1, Haleakala MPS 732516
2013 12 11.60909 07 32 53.788 +18 52 09.30 21.8 w F51 – Pan-STARRS 1, Haleakala MPS 732516
2015 02 16.51712 12 49 54.532 -06 29 39.41 21.7 w F51 – Pan-STARRS 1, Haleakala MPS 732516
2015 02 16.52979 12 49 54.336 -06 29 37.97 22.1 w F51 – Pan-STARRS 1, Haleakala MPS 732516
2015 02 16.54248 12 49 54.133 -06 29 36.86 21.9 w F51 – Pan-STARRS 1, Haleakala MPS 732516
2015 02 27.54433 12 45 52.365 -06 01 27.65 21.9 w F51 – Pan-STARRS 1, Haleakala MPS 732516
2015 02 27.55688 12 45 51.957 -06 01 24.96 21.8 w F51 – Pan-STARRS 1, Haleakala MPS 732516
2015 02 27.56942 12 45 51.571 -06 01 22.21 21.8 w F51 – Pan-STARRS 1, Haleakala MPS 732516
2015 03 22.28792 12 29 32.87 -04 06 55.2 21.6 V G96 – Mt. Lemmon Survey MPS 732516
2015 03 22.29252 12 29 32.59 -04 06 53.2 21.0 V G96 – Mt. Lemmon Survey MPS 732516
2015 03 22.29710 12 29 32.38 -04 06 51.4 21.1 V G96 – Mt. Lemmon Survey MPS 732516
2015 03 22.30172 12 29 32.11 -04 06 49.9 21.3 V G96 – Mt. Lemmon Survey MPS 732516
2016 05 26.34138 23 02 49.45 -04 02 14.1 21.7 i W84 – Cerro Tololo-DECam MPS 1224855
2016 05 26.35152 23 02 50.45 -04 02 07.7   W84 – Cerro Tololo-DECam MPS 1224855
2016 05 26.36386 23 02 51.67 -04 01 59.7   W84 – Cerro Tololo-DECam MPS 1224855
2016 08 28.37279 00 18 09.38 +04 00 18.0 19.7 V G96 – Mt. Lemmon Survey MPS 728009
2016 08 28.38055 00 18 09.12 +04 00 16.8 19.8 V G96 – Mt. Lemmon Survey MPS 728009
2016 08 28.38842 00 18 08.86 +04 00 15.2 20.2 V G96 – Mt. Lemmon Survey MPS 728009
2016 08 28.39624 00 18 08.62 +04 00 12.7 19.6 V G96 – Mt. Lemmon Survey MPS 728009
2016 09 09.06404 00 11 04.97 +03 02 38.9 20.0 V 198 – Wildberg MPS 728009
2016 09 09.06757 00 11 04.82 +03 02 37.5 20.0 V 198 – Wildberg MPS 728009
2016 09 09.08169 00 11 04.19 +03 02 32.5 20.0 V 198 – Wildberg MPS 728009
2016 09 09.09581 00 11 03.55 +03 02 27.6 20.0 V 198 – Wildberg MPS 728009
2016 09 09.09934 00 11 03.39 +03 02 26.7 20.0 V 198 – Wildberg MPS 728009
2016 09 10.03551 00 10 22.26 +02 56 50.5 19.9 V 198 – Wildberg MPS 728009
2016 09 10.03974 00 10 22.07 +02 56 49.1 20.2 V 198 – Wildberg MPS 728009
2016 09 10.04115 00 10 21.99 +02 56 48.6 20.1 V 198 – Wildberg MPS 728009
2016 09 10.05032 00 10 21.58 +02 56 45.4 20.2 V 198 – Wildberg MPS 728009
2016 09 10.05385 00 10 21.42 +02 56 44.0 20.0 V 198 – Wildberg MPS 728009
2016 09 10.05808 00 10 21.22 +02 56 42.6 20.2 V 198 – Wildberg MPS 728009
2016 09 10.06585 00 10 20.86 +02 56 39.8 20.2 V 198 – Wildberg MPS 728009
2016 09 10.07784 00 10 20.30 +02 56 35.2 20.2 V 198 – Wildberg MPS 728009
2016 09 10.08842 00 10 19.80 +02 56 31.5 20.1 V 198 – Wildberg MPS 728009
2016 09 11.00098 00 09 39.03 +02 50 57.1 19.9 V 198 – Wildberg MPS 728009
2016 09 11.01578 00 09 38.32 +02 50 51.8 20.1 V 198 – Wildberg MPS 728009
2016 09 11.03059 00 09 37.62 +02 50 46.4 20.1 V 198 – Wildberg MPS 728009
2016 09 11.04611 00 09 36.89 +02 50 40.6 20.1 V 198 – Wildberg MPS 728009
2016 09 11.06092 00 09 36.18 +02 50 35.2 20.2 V 198 – Wildberg MPS 728009
2016 09 11.07574 00 09 35.46 +02 50 29.4 20.1 V 198 – Wildberg MPS 728009
2016 09 11.09054 00 09 34.77 +02 50 24.0 20.0 V 198 – Wildberg MPS 728009
2016 09 11.34842 00 09 23.19 +02 48 50.5 19.6 V G96 – Mt. Lemmon Survey MPS 728009
2016 09 11.36377 00 09 22.48 +02 48 44.8 20.4 V G96 – Mt. Lemmon Survey MPS 728009
2016 09 11.36932 00 09 22.19 +02 48 42.7 19.5 V G96 – Mt. Lemmon Survey MPS 728009
2016 09 11.37362 00 09 21.96 +02 48 41.1 19.5 V G96 – Mt. Lemmon Survey MPS 728009
2016 09 11.94671 00 08 55.98 +02 45 04.7 20.2 V 198 – Wildberg MPS 730051
2016 09 11.95658 00 08 55.49 +02 45 01.1 20.2 V 198 – Wildberg MPS 730051
2016 09 11.97562 00 08 54.58 +02 44 53.8 20.3 V 198 – Wildberg MPS 730051
2016 09 12.00383 00 08 53.19 +02 44 43.3 20.4 V 198 – Wildberg MPS 730051
2016 09 12.02287 00 08 52.26 +02 44 35.9 20.4 V 198 – Wildberg MPS 730051
2016 09 22.30666 00 00 33.53 +01 35 58.0 18.7 V 703 – Catalina Sky Survey MPS 730051
2016 09 22.31329 00 00 33.22 +01 35 55.5 19.5 V 703 – Catalina Sky Survey MPS 730051
2016 09 22.31993 00 00 32.89 +01 35 53.0 19.1 V 703 – Catalina Sky Survey MPS 730051
